Volver al catálogo

THORAD AGENA D DEB

ActivoSSO
NORAD 4652·DEBRIS·🇺🇸 United States

Lanzado Apr 8, 1970 desde Vandenberg Space Force Base

Loading…

Próximos Pases (próximas 24 horas)

TLE

ActualizadoSource: Space-Track

Época: Sep 14, 2026, 21:53 UTC

1 04652U 70025AL  26257.91234823  .00000668  00000-0  57086-3 0  9994
2 04652  99.6299  55.5254 0029702 344.3345 169.0553 13.90793441829699

Sigue THORAD AGENA D DEB en tiempo real con AllMySat

Download on the App Store